Amelia, Virginia, United States
Lat: 37.37N, Lon: 77.92W
Wx Zone: VAZ068
Local Info
Past Weather Observations for Saturday, October 25, 2014

NOTE: This archive is for the closest National Weather Service station to Amelia. Information may differ from the station used for current weather conditions.

Click here for Long-term Archive

Time Weather Temperature Dewpoint Humidity Pressure Winds Precip Visibility
23:55
Clear
54°F / 12°C 45°F / 7°C 72% 29.77 in
(1008 mb)
SSW 4.6 mph
(SSW 7 kph)
- 10SM
23:35
Clear
52°F / 11°C 45°F / 7°C 77% 29.77 in
(1008 mb)
SSW 6.9 mph
(SSW 11 kph)
- 10SM
23:15
Clear
54°F / 12°C 45°F / 7°C 72% 29.77 in
(1008 mb)
SW 4.6 mph
(SW 7 kph)
- 10SM
22:55
Clear
54°F / 12°C 45°F / 7°C 72% 29.77 in
(1008 mb)
SW 5.8 mph
(SW 9 kph)
- 10SM
22:35
Clear
55°F / 13°C 45°F / 7°C 67% 29.8 in
(1009 mb)
SW 3.5 mph
(SW 6 kph)
- 10SM
22:15
Clear
55°F / 13°C 45°F / 7°C 67% 29.8 in
(1009 mb)
SW 4.6 mph
(SW 7 kph)
- 10SM
21:55
Clear
55°F / 13°C 45°F / 7°C 67% 29.8 in
(1009 mb)
SW 4.6 mph
(SW 7 kph)
- 10SM
21:35
Clear
54°F / 12°C 45°F / 7°C 72% 29.8 in
(1009 mb)
SW 4.6 mph
(SW 7 kph)
- 10SM
21:15
Clear
55°F / 13°C 45°F / 7°C 67% 29.8 in
(1009 mb)
SW 5.8 mph
(SW 9 kph)
- 10SM
20:55
Clear
55°F / 13°C 45°F / 7°C 67% 29.8 in
(1009 mb)
SSE 5.8 mph
(SSE 9 kph)
- 10SM
20:35
Clear
55°F / 13°C 45°F / 7°C 67% 29.8 in
(1009 mb)
SSE 4.6 mph
(SSE 7 kph)
- 10SM
20:15
Clear
55°F / 13°C 45°F / 7°C 67% 29.83 in
(1010 mb)
SSE 4.6 mph
(SSE 7 kph)
- 10SM
19:55
Clear
54°F / 12°C 45°F / 7°C 72% 29.83 in
(1010 mb)
S 4.6 mph
(S 7 kph)
- 10SM
19:35
Clear
54°F / 12°C 45°F / 7°C 72% 29.83 in
(1010 mb)
S 3.5 mph
(S 6 kph)
- 10SM
19:15
Clear
55°F / 13°C 45°F / 7°C 67% 29.83 in
(1010 mb)
S 4.6 mph
(S 7 kph)
- 10SM
18:55
Clear
57°F / 14°C 45°F / 7°C 63% 29.83 in
(1010 mb)
S 3.5 mph
(S 6 kph)
- 10SM
18:35
Clear
57°F / 14°C 45°F / 7°C 63% 29.83 in
(1010 mb)
S 4.6 mph
(S 7 kph)
- 10SM
18:15
Clear
52°F / 11°C 46°F / 8°C 82% 29.83 in
(1010 mb)
S 3.5 mph
(S 6 kph)
- 10SM
17:55
Clear
54°F / 12°C 46°F / 8°C 77% 29.86 in
(1011 mb)
S 3.5 mph
(S 6 kph)
- 10SM
17:35
Clear
54°F / 12°C 46°F / 8°C 77% 29.86 in
(1011 mb)
Calm - 10SM
17:15
Clear
61°F / 16°C 45°F / 7°C 55% 29.86 in
(1011 mb)
SSE 3.5 mph
(SSE 6 kph)
- 10SM
16:55
Clear
64°F / 18°C 43°F / 6°C 46% 29.86 in
(1011 mb)
SW 3.5 mph
(SW 6 kph)
- 10SM
16:35
Clear
66°F / 19°C 39°F / 4°C 37% 29.86 in
(1011 mb)
SW 3.5 mph
(SW 6 kph)
- 10SM
16:15
Clear
68°F / 20°C 39°F / 4°C 35% 29.89 in
(1012 mb)
SW 8.1 mph
(SW 13 kph)
- 10SM
15:55
Clear
68°F / 20°C 37°F / 3°C 33% 29.86 in
(1011 mb)
SW 8.1 mph
(SW 13 kph)
- 10SM
15:35
Clear
70°F / 21°C 39°F / 4°C 33% 29.86 in
(1011 mb)
SSW 9.2 mph
(SSW 15 kph)
- 10SM
15:15
Clear
70°F / 21°C 36°F / 2°C 29% 29.86 in
(1011 mb)
SW 6.9 mph
(SW 11 kph)
- 10SM
14:55
Clear
70°F / 21°C 36°F / 2°C 29% 29.86 in
(1011 mb)
SSW 9.2 mph
(SSW 15 kph)
- 10SM
14:35
Clear
70°F / 21°C 36°F / 2°C 29% 29.89 in
(1012 mb)
SW 9.2 mph
(SW 15 kph)
- 10SM
14:15
Clear
70°F / 21°C 36°F / 2°C 29% 29.89 in
(1012 mb)
SW 10.4 mph
(SW 17 kph)
- 10SM
13:55
Clear
70°F / 21°C 34°F / 1°C 27% 29.89 in
(1012 mb)
SW 11.5 mph
(SW 19 kph)
- 10SM
13:35
Clear
70°F / 21°C 36°F / 2°C 29% 29.92 in
(1013 mb)
SW 8.1 mph
(SW 13 kph)
- 10SM
13:15
Clear
70°F / 21°C 36°F / 2°C 29% 29.92 in
(1013 mb)
SSE 3.5 mph
(SSE 6 kph)
- 10SM
12:55
Clear
70°F / 21°C 36°F / 2°C 29% 29.92 in
(1013 mb)
SW 5.8 mph
(SW 9 kph)
- 10SM
12:35
Clear
68°F / 20°C 36°F / 2°C 30% 29.95 in
(1014 mb)
SW 3.5 mph
(SW 6 kph)
- 10SM
12:15
Clear
68°F / 20°C 36°F / 2°C 30% 29.95 in
(1014 mb)
SSE 3.5 mph
(SSE 6 kph)
- 10SM
11:55
Clear
66°F / 19°C 36°F / 2°C 32% 29.95 in
(1014 mb)
Calm - 10SM
11:35
Clear
66°F / 19°C 36°F / 2°C 32% 29.98 in
(1015 mb)
Calm - 10SM
11:15
Clear
64°F / 18°C 39°F / 4°C 40% 30.01 in
(1016 mb)
Calm - 10SM
10:55
Clear
63°F / 17°C 41°F / 5°C 45% 30.01 in
(1016 mb)
Calm - 10SM
10:35
Clear
63°F / 17°C 41°F / 5°C 45% 30.01 in
(1016 mb)
NW 3.5 mph
(NW 6 kph)
- 10SM
10:15
Clear
61°F / 16°C 41°F / 5°C 48% 30.01 in
(1016 mb)
Calm - 10SM
09:55
Clear
59°F / 15°C 43°F / 6°C 55% 30.01 in
(1016 mb)
NW 3.5 mph
(NW 6 kph)
- 10SM
09:35
Clear
59°F / 15°C 41°F / 5°C 51% 30.01 in
(1016 mb)
Calm - 10SM
09:15
Clear
57°F / 14°C 41°F / 5°C 55% 30.01 in
(1016 mb)
SSW 3.5 mph
(SSW 6 kph)
- 10SM
08:55
Clear
55°F / 13°C 45°F / 7°C 67% 30.01 in
(1016 mb)
Calm - 10SM
08:35
Clear
52°F / 11°C 45°F / 7°C 77% 30.01 in
(1016 mb)
Calm - 10SM
08:15
Clear
48°F / 9°C 45°F / 7°C 87% 30.01 in
(1016 mb)
Calm - 10SM
07:55
Clear
45°F / 7°C 43°F / 6°C 93% 30.01 in
(1016 mb)
Calm - 10SM
07:35
Clear
43°F / 6°C 41°F / 5°C 93% 30.01 in
(1016 mb)
SW 3.5 mph
(SW 6 kph)
- 10SM
07:15
Clear
37°F / 3°C 37°F / 3°C 100% 30.01 in
(1016 mb)
Calm - 7SM
06:55
Clear
36°F / 2°C 34°F / 1°C 93% 30.01 in
(1016 mb)
SW 3.5 mph
(SW 6 kph)
- 7SM
06:35
Clear
Fog And Mist
34°F / 1°C 34°F / 1°C 100% 30.01 in
(1016 mb)
Calm - 5SM
06:15
Clear
34°F / 1°C 34°F / 1°C 100% 30.01 in
(1016 mb)
Calm - 7SM
05:55
Clear
Fog And Mist
36°F / 2°C 34°F / 1°C 93% 30.01 in
(1016 mb)
Calm - 3SM
05:35
Clear
Light Snow
34°F / 1°C 34°F / 1°C 100% 30.01 in
(1016 mb)
Calm - 7SM
05:15
Clear
34°F / 1°C 34°F / 1°C 100% 30.01 in
(1016 mb)
Calm - 7SM
04:55
Clear
Light Snow
36°F / 2°C 36°F / 2°C 100% 30.01 in
(1016 mb)
Calm - 4SM
04:35
Clear
36°F / 2°C 36°F / 2°C 100% 29.98 in
(1015 mb)
Calm - 7SM
04:15
Clear
Unknown Precip
37°F / 3°C 36°F / 2°C 93% 29.98 in
(1015 mb)
Calm - 4SM
03:55
Clear
Fog And Mist
37°F / 3°C 36°F / 2°C 93% 29.98 in
(1015 mb)
Calm - 3SM
03:35
Clear
Fog And Mist
37°F / 3°C 37°F / 3°C 100% 29.98 in
(1015 mb)
Calm - 5SM
03:15
Clear
Fog And Mist
37°F / 3°C 36°F / 2°C 93% 29.98 in
(1015 mb)
Calm - 5SM
02:55
Clear
Fog And Mist
37°F / 3°C 37°F / 3°C 100% 29.98 in
(1015 mb)
Calm - 4SM
02:35
Clear
Fog And Mist
39°F / 4°C 37°F / 3°C 93% 29.98 in
(1015 mb)
Calm - 2 1/2SM
02:15
Obscured
Light Snow
39°F / 4°C 39°F / 4°C 100% 29.98 in
(1015 mb)
Calm - 1 1/2SM
01:55
Clear
Fog And Mist
41°F / 5°C 39°F / 4°C 93% 29.98 in
(1015 mb)
Calm - 4SM
01:35
Clear
41°F / 5°C 39°F / 4°C 93% 29.98 in
(1015 mb)
Calm - 7SM
01:15
Clear
Fog And Mist
41°F / 5°C 41°F / 5°C 100% 29.98 in
(1015 mb)
Calm - 5SM
00:55
Clear
45°F / 7°C 45°F / 7°C 100% 29.98 in
(1015 mb)
Calm - 10SM
00:35
Clear
39°F / 4°C 39°F / 4°C 100% 29.98 in
(1015 mb)
Calm - 10SM
00:15
Clear
Light Rain
41°F / 5°C 39°F / 4°C 93% 29.98 in
(1015 mb)
Calm - 7SM
Time Weather Temperature Dewpoint Humidity Pressure Winds Precip Visibility


Weather for websites

WeatherForYou.com, LLC is not responsible for any damages or problems caused by this service. Current weather conditions are obtained from the closest station including government and personal stations which may have varying degrees of accuracy. Weather forecasts are derived from the NOAA NDFD. Like all things, this site belongs to Jesus Christ... He just trusts me to maintain it. If you have any questions or comments email webmaster@weatherforyou.com

Copyright © 2014, WeatherForYou.com LLC. All rights reserved.